Location: Unspecified
(41.1637°N, 24.2901°E)
Time: 22:59:21
(UTC+02:00)

X-37B - Pass Details

Date: 10 March 2021
Orbit: 380 x 394 km, 45.0° (Epoch: 07 April)

Event Time Altitude Azimuth Distance (km) Brightness Sun altitude
Rises 19:38:54 0° 240° (WSW) 2,266 5.0 -25.8°
Reaches altitude 10° 19:40:58 10° 237° (WSW) 1,416 3.9 -26.2°
Enters shadow 19:41:14 12° 237° (WSW) 1,308 3.7 -26.3°
